RYR25EF LDZD-EDLV

Flight info

Callsign RYR25EF
Flight time N/A
Altitude 36000
Route RAVNA DCT RASTA DCT SIMBA DCT KEMES DCT TESDU DCT AMETU T852 EKSAK/N0405F260 T852 KULIX/N0393F240 T852 HMM Z850 EKTOT/N0369F200 Z850 TURUX DCT SOBTU SOBTU1W
Aircraft B738/M-SDE2E3FGHIRWXY/LB1

Departure

Time 2026-04-21 21:00
Airport Zadar Airport (LDZD)

Arrival

Time N/A
Airport Weeze (Niederrhein) Airport (EDLV)
Time Latitude Longitude Altitude Speed Heading
2026-04-21 20:47 44.09733 15.35410 266 ft 0 kts 327°
2026-04-21 20:53 44.09738 15.35405 266 ft 0 kts 326°
2026-04-21 20:53 44.09742 15.35402 266 ft 2 kts 326°
2026-04-21 20:53 44.09747 15.35397 266 ft 0 kts 326°
2026-04-21 20:53 44.09755 15.35389 266 ft 3 kts 325°
2026-04-21 20:54 44.09761 15.35387 266 ft 0 kts 15°
2026-04-21 20:54 44.09762 15.35387 266 ft 0 kts 11°
2026-04-21 20:54 44.09764 15.35388 267 ft 0 kts 31°
2026-04-21 20:54 44.09767 15.35393 266 ft 1 kts 55°
2026-04-21 20:55 44.09771 15.35434 266 ft 11 kts 84°
2026-04-21 20:55 44.09817 15.35507 263 ft 11 kts 351°
2026-04-21 20:55 44.09861 15.35510 262 ft 8 kts
2026-04-21 20:55 44.09928 15.35463 262 ft 14 kts 316°
2026-04-21 20:56 44.10009 15.35352 263 ft 18 kts 315°
2026-04-21 20:56 44.10118 15.35205 261 ft 24 kts 318°
2026-04-21 20:56 44.10251 15.35028 258 ft 26 kts 315°
2026-04-21 20:56 44.10385 15.34850 254 ft 26 kts 315°
2026-04-21 20:57 44.10518 15.34667 250 ft 26 kts 315°
2026-04-21 20:57 44.10648 15.34489 250 ft 25 kts 315°
2026-04-21 20:57 44.10770 15.34325 250 ft 24 kts 315°
2026-04-21 20:57 44.10910 15.34134 248 ft 34 kts 315°
2026-04-21 20:58 44.11081 15.33903 247 ft 33 kts 316°
2026-04-21 20:58 44.11244 15.33685 245 ft 32 kts 316°
2026-04-21 20:58 44.11398 15.33473 242 ft 28 kts 316°
2026-04-21 20:58 44.11492 15.33367 240 ft 15 kts 355°
2026-04-21 20:59 44.11567 15.33445 240 ft 13 kts 50°
2026-04-21 20:59 44.11615 15.33544 241 ft 10 kts 72°
2026-04-21 20:59 44.11596 15.33626 243 ft 9 kts 131°
2026-04-21 20:59 44.11451 15.33823 243 ft 60 kts 136°
2026-04-21 21:00 44.10993 15.34447 249 ft 121 kts 135°
2026-04-21 21:00 44.10261 15.35433 262 ft 169 kts 135°
2026-04-21 21:00 44.09378 15.36634 634 ft 184 kts 133°
2026-04-21 21:00 44.08456 15.37900 1286 ft 189 kts 133°
2026-04-21 21:01 44.07493 15.39099 1757 ft 191 kts 133°
2026-04-21 21:01 44.06467 15.40381 2063 ft 202 kts 132°
2026-04-21 21:01 44.05409 15.41763 2311 ft 218 kts 131°
2026-04-21 21:01 44.04286 15.43256 2616 ft 231 kts 133°
2026-04-21 21:02 44.02905 15.44528 2909 ft 251 kts 157°
2026-04-21 21:02 44.01113 15.44827 3019 ft 274 kts 183°
2026-04-21 21:02 43.99268 15.43950 3398 ft 283 kts 208°
2026-04-21 21:02 43.97749 15.42350 4273 ft 277 kts 224°
2026-04-21 21:03 43.96757 15.40107 4953 ft 278 kts 255°
2026-04-21 21:03 43.96679 15.37473 5634 ft 275 kts 283°
2026-04-21 21:03 43.97369 15.35014 6265 ft 275 kts 301°
2026-04-21 21:03 43.98425 15.32824 6945 ft 275 kts 307°
2026-04-21 21:04 43.99557 15.30719 7618 ft 276 kts 308°
2026-04-21 21:04 44.00725 15.28570 8278 ft 279 kts 307°
2026-04-21 21:04 44.01884 15.26413 8961 ft 280 kts 307°
2026-04-21 21:04 44.03029 15.24260 9635 ft 282 kts 307°
2026-04-21 21:05 44.04185 15.22078 10302 ft 285 kts 307°
2026-04-21 21:05 44.05386 15.19804 10692 ft 298 kts 306°
2026-04-21 21:05 44.06634 15.17436 11059 ft 312 kts 306°
2026-04-21 21:05 44.07948 15.14941 11402 ft 326 kts 306°
2026-04-21 21:06 44.09447 15.12492 11782 ft 338 kts 320°
2026-04-21 21:06 44.11474 15.10950 12512 ft 340 kts 339°
2026-04-21 21:06 44.13788 15.10127 13254 ft 343 kts 348°
2026-04-21 21:06 44.16091 15.09426 13987 ft 344 kts 341°
2026-04-21 21:07 44.18354 15.08329 14672 ft 345 kts 335°
2026-04-21 21:07 44.20562 15.06984 15432 ft 346 kts 332°
2026-04-21 21:07 44.22725 15.05554 16140 ft 348 kts 331°
2026-04-21 21:07 44.24886 15.04102 16885 ft 349 kts 330°
2026-04-21 21:08 44.27089 15.02638 17546 ft 353 kts 331°
2026-04-21 21:08 44.29310 15.01185 18259 ft 354 kts 331°
2026-04-21 21:08 44.31525 14.99751 18927 ft 356 kts 330°
2026-04-21 21:08 44.33786 14.98293 19652 ft 357 kts 330°
2026-04-21 21:09 44.36042 14.96839 20292 ft 359 kts 330°
2026-04-21 21:09 44.38313 14.95374 20903 ft 361 kts 330°
2026-04-21 21:09 44.40568 14.93916 21545 ft 362 kts 330°
2026-04-21 21:09 44.42867 14.92430 22158 ft 364 kts 329°
2026-04-21 21:10 44.45152 14.90948 22694 ft 367 kts 329°
2026-04-21 21:10 44.47444 14.89462 23360 ft 366 kts 329°
2026-04-21 21:10 44.49768 14.87952 23816 ft 371 kts 329°
2026-04-21 21:10 44.52114 14.86431 24366 ft 373 kts 329°
2026-04-21 21:11 44.54505 14.85034 25025 ft 374 kts 332°
2026-04-21 21:11 44.56981 14.83788 25369 ft 381 kts 334°
2026-04-21 21:11 44.59499 14.82627 25845 ft 385 kts 335°
2026-04-21 21:11 44.62072 14.81467 26404 ft 384 kts 335°
2026-04-21 21:12 44.64543 14.80341 26760 ft 388 kts 334°
2026-04-21 21:12 44.67115 14.79147 27309 ft 387 kts 334°
2026-04-21 21:12 44.69685 14.77944 27697 ft 390 kts 334°
2026-04-21 21:12 44.72252 14.76742 28137 ft 391 kts 334°
2026-04-21 21:13 44.74826 14.75529 28571 ft 392 kts 334°
2026-04-21 21:13 44.77414 14.74305 28986 ft 394 kts 334°
2026-04-21 21:13 44.80001 14.73076 29338 ft 396 kts 334°
2026-04-21 21:13 44.82614 14.71832 29771 ft 396 kts 333°
2026-04-21 21:14 44.85200 14.70599 30193 ft 396 kts 333°
2026-04-21 21:14 44.87815 14.69357 30686 ft 394 kts 333°
2026-04-21 21:14 44.90388 14.68135 31155 ft 392 kts 333°
2026-04-21 21:14 44.92977 14.66899 31475 ft 394 kts 333°
2026-04-21 21:15 44.95561 14.65665 31739 ft 396 kts 333°
2026-04-21 21:15 44.98174 14.64415 32100 ft 396 kts 334°
2026-04-21 21:15 45.00780 14.63165 32492 ft 395 kts 334°
2026-04-21 21:15 45.03359 14.61928 32819 ft 395 kts 334°
2026-04-21 21:16 45.05970 14.60670 33034 ft 398 kts 334°
2026-04-21 21:16 45.08587 14.59407 33274 ft 400 kts 334°
2026-04-21 21:16 45.11211 14.58146 33580 ft 400 kts 334°
2026-04-21 21:16 45.13826 14.56889 33865 ft 400 kts 335°
2026-04-21 21:17 45.16482 14.55614 34192 ft 399 kts 335°
2026-04-21 21:17 45.19091 14.54360 34347 ft 402 kts 335°
2026-04-21 21:17 45.21746 14.53080 34589 ft 403 kts 335°
2026-04-21 21:17 45.24372 14.51815 34893 ft 402 kts 336°
2026-04-21 21:18 45.27032 14.50531 35142 ft 403 kts 335°
2026-04-21 21:18 45.29666 14.49253 35318 ft 405 kts 336°
2026-04-21 21:18 45.32350 14.47945 35584 ft 404 kts 336°
2026-04-21 21:18 45.34980 14.46667 35848 ft 403 kts 336°
2026-04-21 21:19 45.37637 14.45377 36064 ft 404 kts 336°
2026-04-21 21:19 45.40295 14.44084 36067 ft 406 kts 336°
2026-04-21 21:19 45.45650 14.41478 36081 ft 408 kts 336°
2026-04-21 21:20 45.50993 14.38882 36062 ft 407 kts 337°
2026-04-21 21:20 45.56354 14.36271 36075 ft 410 kts 336°
2026-04-21 21:21 45.61730 14.33637 36086 ft 409 kts 336°
2026-04-21 21:21 45.67079 14.31015 36074 ft 407 kts 336°
2026-04-21 21:22 45.72448 14.28367 36089 ft 409 kts 336°
2026-04-21 21:22 45.77832 14.25708 36094 ft 412 kts 336°
2026-04-21 21:23 45.83222 14.23045 36079 ft 411 kts 336°
2026-04-21 21:23 45.88634 14.20372 36124 ft 411 kts 336°
2026-04-21 21:24 45.94036 14.17696 36111 ft 410 kts 336°
2026-04-21 21:24 45.99421 14.15022 36106 ft 412 kts 337°
2026-04-21 21:25 46.04855 14.12315 36129 ft 412 kts 337°
2026-04-21 21:25 46.10254 14.09626 36120 ft 413 kts 337°
2026-04-21 21:26 46.15678 14.06922 36102 ft 413 kts 337°
2026-04-21 21:26 46.21104 14.04206 36102 ft 413 kts 338°
2026-04-21 21:27 46.26492 14.01493 36092 ft 413 kts 337°
2026-04-21 21:27 46.31920 13.98761 36093 ft 412 kts 338°
2026-04-21 21:28 46.37320 13.96040 36089 ft 413 kts 338°
2026-04-21 21:29 46.45433 13.91939 36101 ft 413 kts 338°
2026-04-21 21:29 46.50864 13.89194 36112 ft 413 kts 338°
2026-04-21 21:30 46.56102 13.86537 36115 ft 412 kts 338°
2026-04-21 21:30 46.61506 13.83784 36106 ft 412 kts 338°
2026-04-21 21:31 46.66906 13.81028 36105 ft 413 kts 338°
2026-04-21 21:31 46.72304 13.78268 36103 ft 412 kts 338°
2026-04-21 21:32 46.77719 13.75496 36096 ft 413 kts 338°
2026-04-21 21:32 46.83094 13.72743 36081 ft 413 kts 338°
2026-04-21 21:33 46.88520 13.69953 36064 ft 413 kts 338°
2026-04-21 21:33 46.93938 13.67157 36038 ft 413 kts 338°
2026-04-21 21:34 46.99335 13.64368 36013 ft 413 kts 338°
2026-04-21 21:34 47.04764 13.61555 36009 ft 413 kts 338°
2026-04-21 21:35 47.10172 13.58755 36019 ft 414 kts 338°
2026-04-21 21:35 47.15603 13.55936 36037 ft 415 kts 338°
2026-04-21 21:36 47.21026 13.53110 36063 ft 415 kts 338°
2026-04-21 21:36 47.26461 13.50270 36091 ft 415 kts 338°
2026-04-21 21:37 47.31927 13.47410 36094 ft 415 kts 338°
2026-04-21 21:37 47.37367 13.44557 36090 ft 417 kts 339°
2026-04-21 21:38 47.42828 13.41689 36084 ft 417 kts 339°
2026-04-21 21:38 47.48281 13.38820 36073 ft 417 kts 338°
2026-04-21 21:39 47.53730 13.36020 36074 ft 418 kts 340°
2026-04-21 21:39 47.59253 13.33321 36100 ft 419 kts 339°
2026-04-21 21:40 47.64793 13.30627 36124 ft 419 kts 339°
2026-04-21 21:40 47.70310 13.27921 36155 ft 420 kts 340°
2026-04-21 21:41 47.75860 13.25182 36173 ft 420 kts 340°